• In Uzbekistan
  • List of Countries
  • For 7 days
  • Water Temperature
  • Satellite Maps
  • Weather Map
  • Weather Widgets
  • user-avatar
    Login

    Hourly Weather Novokryvorizhzhya

    Today, 16 December, Saturday

    Time Temperature Precipitation Wind Pressure Humidity
    00:00 +5°C° 0 mm 4 mps 746 mmHg 93%
    01:00 +5°C° 0 mm 4 mps 746 mmHg 94%
    02:00 +4°C° 0 mm 4 mps 746 mmHg 96%
    03:00 +5°C° 0 mm 4 mps 746 mmHg 95%
    04:00 +5°C° 0 mm 5 mps 746 mmHg 95%
    05:00 +4°C° 0 mm 6 mps 746 mmHg 94%
    06:00 +5°C° 0 mm 6 mps 745 mmHg 93%
    07:00 +5°C° 0 mm 6 mps 745 mmHg 92%
    08:00 +5°C° 0 mm 6 mps 745 mmHg 91%
    09:00 +6°C° 0.1 mm 7 mps 745 mmHg 87%
    10:00 +6°C° 0.1 mm 7 mps 745 mmHg 83%
    11:00 +8°C° 0.1 mm 7 mps 745 mmHg 79%
    12:00 +7°C° 0.1 mm 8 mps 745 mmHg 75%
    13:00 +9°C° 0.1 mm 8 mps 744 mmHg 70%
    14:00 +9°C° 0.1 mm 8 mps 744 mmHg 66%
    15:00 +9°C° 0 mm 8 mps 744 mmHg 66%
    16:00 +7°C° 0 mm 8 mps 744 mmHg 66%
    17:00 +7°C° 0 mm 8 mps 744 mmHg 65%
    18:00 +7°C° 0 mm 8 mps 744 mmHg 67%
    19:00 +6°C° 0 mm 8 mps 744 mmHg 68%
    20:00 +6°C° 0 mm 8 mps 744 mmHg 70%
    21:00 +6°C° 0 mm 8 mps 744 mmHg 73%
    22:00 +6°C° 0 mm 7 mps 744 mmHg 75%
    23:00 +6°C° 0 mm 7 mps 744 mmHg 77%

    Tomorrow, 17 December, Sunday

    Time Temperature Precipitation Wind Pressure Humidity
    00:00 +6°C° 0 mm 7 mps 744 mmHg 78%
    01:00 +6°C° 0 mm 7 mps 745 mmHg 79%
    02:00 +6°C° 0 mm 7 mps 745 mmHg 79%
    03:00 +6°C° 0 mm 7 mps 745 mmHg 79%
    04:00 +7°C° 0 mm 6 mps 745 mmHg 78%
    05:00 +7°C° 0 mm 6 mps 745 mmHg 77%
    06:00 +7°C° 0 mm 6 mps 745 mmHg 77%
    07:00 +7°C° 0 mm 6 mps 745 mmHg 76%
    08:00 +6°C° 0 mm 7 mps 745 mmHg 76%
    09:00 +8°C° 0.1 mm 7 mps 745 mmHg 74%
    10:00 +8°C° 0.1 mm 7 mps 745 mmHg 71%
    11:00 +8°C° 0.1 mm 7 mps 745 mmHg 69%
    12:00 +8°C° 0.3 mm 7 mps 745 mmHg 71%
    13:00 +8°C° 0.3 mm 6 mps 745 mmHg 73%
    14:00 +8°C° 0.3 mm 6 mps 744 mmHg 75%
    15:00 +7°C° 0.1 mm 6 mps 744 mmHg 75%
    16:00 +7°C° 0.1 mm 6 mps 744 mmHg 75%
    17:00 +7°C° 0.1 mm 6 mps 744 mmHg 75%
    18:00 +7°C° 0.1 mm 6 mps 744 mmHg 75%
    19:00 +5°C° 0.1 mm 7 mps 744 mmHg 75%
    20:00 +5°C° 0.1 mm 7 mps 744 mmHg 74%
    21:00 +5°C° 0.1 mm 7 mps 744 mmHg 74%
    22:00 +5°C° 0.1 mm 7 mps 743 mmHg 74%
    23:00 +5°C° 0.1 mm 7 mps 743 mmHg 73%

    Day after tomorrow, 18 December, Monday

    Time Temperature Precipitation Wind Pressure Humidity
    00:00 +5°C° 0.3 mm 7 mps 743 mmHg 76%
    01:00 +5°C° 0.3 mm 7 mps 743 mmHg 79%
    02:00 +5°C° 0.3 mm 7 mps 742 mmHg 82%
    03:00 +5°C° 0.5 mm 7 mps 742 mmHg 82%
    04:00 +5°C° 0.5 mm 7 mps 742 mmHg 82%
    05:00 +5°C° 0.5 mm 7 mps 742 mmHg 82%
    06:00 +5°C° 0.9 mm 7 mps 742 mmHg 83%
    07:00 +6°C° 0.9 mm 7 mps 742 mmHg 85%
    08:00 +6°C° 0.9 mm 7 mps 742 mmHg 86%
    09:00 +6°C° 0.5 mm 7 mps 742 mmHg 87%
    10:00 +6°C° 0.5 mm 7 mps 742 mmHg 88%
    11:00 +6°C° 0.5 mm 7 mps 742 mmHg 88%
    12:00 +7°C° 0.1 mm 6 mps 742 mmHg 86%
    13:00 +5°C° 0.1 mm 6 mps 742 mmHg 85%
    14:00 +5°C° 0.1 mm 5 mps 743 mmHg 83%
    15:00 +5°C° 0 mm 5 mps 743 mmHg 81%
    16:00 +3°C° 0 mm 5 mps 744 mmHg 79%
    17:00 +2°C° 0 mm 5 mps 744 mmHg 77%
    18:00 +2°C° 0 mm 5 mps 745 mmHg 77%
    19:00 +1°C° 0 mm 5 mps 745 mmHg 76%
    20:00 +1°C° 0 mm 5 mps 746 mmHg 76%
    21:00 +1°C° 0 mm 5 mps 746 mmHg 76%
    22:00 0°C° 0 mm 5 mps 747 mmHg 76%
    23:00 0°C° 0 mm 5 mps 747 mmHg 77%

    19 December, Tuesday

    Time Temperature Precipitation Wind Pressure Humidity
    00:00 0°C° 0 mm 5 mps 747 mmHg 76%
    01:00 0°C° 0 mm 4 mps 748 mmHg 76%
    02:00 -1°C° 0 mm 4 mps 748 mmHg 76%
    03:00 -1°C° 0 mm 4 mps 748 mmHg 76%
    04:00 -1°C° 0 mm 4 mps 748 mmHg 76%
    05:00 -1°C° 0 mm 4 mps 749 mmHg 76%
    06:00 -1°C° 0 mm 4 mps 749 mmHg 78%
    07:00 -2°C° 0 mm 4 mps 750 mmHg 79%
    08:00 -2°C° 0 mm 4 mps 750 mmHg 80%
    09:00 -2°C° 0 mm 4 mps 750 mmHg 78%
    10:00 -2°C° 0 mm 4 mps 751 mmHg 76%
    11:00 -1°C° 0 mm 4 mps 751 mmHg 74%
    12:00 -1°C° 0 mm 4 mps 751 mmHg 73%
    13:00 -1°C° 0 mm 4 mps 751 mmHg 72%
    14:00 -1°C° 0 mm 4 mps 751 mmHg 72%
    15:00 -2°C° 0 mm 4 mps 752 mmHg 73%
    16:00 -2°C° 0 mm 4 mps 752 mmHg 75%
    17:00 -3°C° 0 mm 4 mps 752 mmHg 77%
    18:00 -2°C° 0 mm 3 mps 752 mmHg 77%
    19:00 -2°C° 0 mm 3 mps 753 mmHg 77%
    20:00 -2°C° 0 mm 3 mps 753 mmHg 77%
    21:00 -2°C° 0 mm 3 mps 753 mmHg 77%
    22:00 -2°C° 0 mm 3 mps 753 mmHg 78%
    23:00 -4°C° 0 mm 3 mps 754 mmHg 78%

    20 December, Wednesday

    Time Temperature Precipitation Wind Pressure Humidity
    00:00 -4°C° 0 mm 3 mps 754 mmHg 78%
    01:00 -4°C° 0 mm 3 mps 754 mmHg 78%
    02:00 -4°C° 0 mm 3 mps 754 mmHg 78%
    03:00 -4°C° 0 mm 3 mps 754 mmHg 78%
    04:00 -3°C° 0 mm 2 mps 754 mmHg 79%
    05:00 -3°C° 0 mm 2 mps 754 mmHg 79%
    06:00 -3°C° 0 mm 2 mps 754 mmHg 78%
    07:00 -3°C° 0 mm 2 mps 754 mmHg 77%
    08:00 -3°C° 0 mm 2 mps 754 mmHg 76%
    09:00 -3°C° 0 mm 2 mps 754 mmHg 73%
    10:00 -2°C° 0 mm 2 mps 754 mmHg 69%
    11:00 -2°C° 0 mm 2 mps 754 mmHg 66%
    12:00 -2°C° 0 mm 2 mps 754 mmHg 65%
    13:00 -2°C° 0 mm 2 mps 754 mmHg 64%
    14:00 -2°C° 0 mm 2 mps 754 mmHg 63%
    15:00 0°C° 0 mm 1 mps 754 mmHg 65%
    16:00 0°C° 0 mm 1 mps 754 mmHg 67%
    17:00 -1°C° 0 mm 1 mps 754 mmHg 69%
    18:00 -1°C° 0 mm 1 mps 754 mmHg 69%
    19:00 -2°C° 0 mm 0 mps 754 mmHg 68%
    20:00 -2°C° 0 mm 0 mps 754 mmHg 68%
    21:00 -2°C° 0 mm 0 mps 754 mmHg 68%
    22:00 -2°C° 0 mm 0 mps 754 mmHg 68%
    23:00 -2°C° 0 mm 0 mps 754 mmHg 68%

    21 December, Thursday

    Time Temperature Precipitation Wind Pressure Humidity
    00:00 -1°C° 0 mm 1 mps 754 mmHg 68%
    01:00 -1°C° 0 mm 1 mps 754 mmHg 68%
    02:00 -1°C° 0 mm 1 mps 754 mmHg 68%
    03:00 -2°C° 0 mm 1 mps 754 mmHg 69%
    04:00 -2°C° 0 mm 1 mps 753 mmHg 69%
    05:00 -2°C° 0 mm 1 mps 753 mmHg 70%
    06:00 -2°C° 0 mm 1 mps 753 mmHg 70%
    07:00 -2°C° 0 mm 1 mps 753 mmHg 71%
    08:00 -2°C° 0 mm 1 mps 753 mmHg 71%
    09:00 -3°C° 0 mm 2 mps 753 mmHg 68%
    10:00 -2°C° 0 mm 2 mps 753 mmHg 66%
    11:00 -1°C° 0 mm 2 mps 752 mmHg 63%
    12:00 -1°C° 0 mm 2 mps 752 mmHg 63%
    13:00 -1°C° 0 mm 2 mps 752 mmHg 63%
    14:00 -1°C° 0 mm 3 mps 751 mmHg 63%
    15:00 -2°C° 0 mm 3 mps 751 mmHg 68%
    16:00 -2°C° 0 mm 3 mps 751 mmHg 73%
    17:00 -4°C° 0 mm 3 mps 751 mmHg 78%
    18:00 -4°C° 0 mm 3 mps 751 mmHg 79%
    19:00 -4°C° 0 mm 3 mps 750 mmHg 81%
    20:00 -4°C° 0 mm 3 mps 750 mmHg 82%
    21:00 -4°C° 0 mm 3 mps 750 mmHg 84%
    22:00 -5°C° 0 mm 3 mps 750 mmHg 85%
    23:00 -5°C° 0 mm 3 mps 749 mmHg 87%
    Show more